Location: Paderno d�Adda
(45.6667°N, 9.4333°E)
Time: 05:27:31
(UTC+00:00)

CENTAUR R/B - Pass Details

Date: 23 January 2021
Orbit: 742 x 1446 km, 63.5° (Epoch: 02 March)

Event Time Altitude Azimuth Distance (km) Brightness Sun altitude
Rises 04:51:06 0° 179° (S) 3,333 5.4 -21.1°
Reaches altitude 10° 04:53:42 10° 168° (SSE) 2,483 4.9 -20.7°
Maximum altitude 04:58:31 28° 110° (ESE) 1,678 4.5 -19.8°
Drops below altitude 10° 05:04:02 10° 54° (NE) 2,874 5.6 -18.9°
Sets 05:07:16 0° 44° (NE) 3,959 6.2 -18.3°
